PRJAQ SAZS-SABE

Flight info

Callsign PRJAQ
Flight time 1h 42m
Altitude 45000
Route LIMAY2C LIMAY UW26 EGUNO UZ109 ISMIL UT655 ASADA ASADA9R
Aircraft C750/M-SBDE3FGHRWXY/S

Departure

Time 2026-05-09 22:18
Airport Teniente Luis Candelaria International Airport (SAZS)

Arrival

Time 2026-05-10 00:00
Airport Aeroparque Jorge Newbery (SABE)
Time Latitude Longitude Altitude Speed Heading
2026-05-09 22:02 -41.14819 -71.15735 2746 ft 0 kts 205°
2026-05-09 22:07 -41.14820 -71.15736 2746 ft 1 kts 204°
2026-05-09 22:07 -41.14843 -71.15741 2746 ft 6 kts 172°
2026-05-09 22:07 -41.14863 -71.15689 2746 ft 7 kts 97°
2026-05-09 22:08 -41.14887 -71.15627 2745 ft 8 kts 143°
2026-05-09 22:08 -41.14935 -71.15625 2746 ft 6 kts 202°
2026-05-09 22:08 -41.14979 -71.15638 2746 ft 8 kts 171°
2026-05-09 22:08 -41.15024 -71.15560 2746 ft 14 kts 114°
2026-05-09 22:09 -41.15080 -71.15397 2745 ft 22 kts 115°
2026-05-09 22:09 -41.15144 -71.15216 2746 ft 21 kts 115°
2026-05-09 22:09 -41.15203 -71.15048 2746 ft 19 kts 115°
2026-05-09 22:09 -41.15257 -71.14894 2746 ft 18 kts 115°
2026-05-09 22:10 -41.15307 -71.14750 2746 ft 17 kts 115°
2026-05-09 22:10 -41.15354 -71.14615 2746 ft 15 kts 114°
2026-05-09 22:10 -41.15398 -71.14493 2746 ft 14 kts 127°
2026-05-09 22:10 -41.15455 -71.14476 2746 ft 3 kts 205°
2026-05-09 22:16 -41.15457 -71.14477 2746 ft 2 kts 205°
2026-05-09 22:16 -41.15500 -71.14506 2746 ft 9 kts 210°
2026-05-09 22:16 -41.15529 -71.14570 2746 ft 8 kts 276°
2026-05-09 22:17 -41.15513 -71.14620 2746 ft 4 kts 295°
2026-05-09 22:17 -41.15511 -71.14624 2746 ft 0 kts 295°
2026-05-09 22:17 -41.15497 -71.14665 2749 ft 25 kts 295°
2026-05-09 22:17 -41.15266 -71.15326 2750 ft 128 kts 295°
2026-05-09 22:18 -41.14809 -71.16593 2932 ft 165 kts 296°
2026-05-09 22:18 -41.14298 -71.18007 3619 ft 176 kts 295°
2026-05-09 22:18 -41.13778 -71.19567 4359 ft 196 kts 290°
2026-05-09 22:18 -41.13234 -71.21359 4937 ft 222 kts 291°
2026-05-09 22:19 -41.12577 -71.23346 5563 ft 246 kts 292°
2026-05-09 22:19 -41.11563 -71.25194 6462 ft 257 kts 320°
2026-05-09 22:19 -41.09881 -71.26041 7358 ft 266 kts 352°
2026-05-09 22:19 -41.08650 -71.25912 7925 ft 272 kts 15°
2026-05-09 22:20 -41.06547 -71.24144 9240 ft 273 kts 44°
2026-05-09 22:20 -41.05126 -71.22431 10190 ft 280 kts 46°
2026-05-09 22:20 -41.03653 -71.20685 10992 ft 286 kts 45°
2026-05-09 22:20 -41.02645 -71.19537 11529 ft 290 kts 44°
2026-05-09 22:21 -41.01093 -71.17780 12323 ft 296 kts 44°
2026-05-09 22:21 -40.99525 -71.15976 13163 ft 301 kts 44°
2026-05-09 22:21 -40.98154 -71.13785 13413 ft 322 kts 63°
2026-05-09 22:21 -40.97119 -71.11026 13537 ft 348 kts 69°
2026-05-09 22:22 -40.96016 -71.08039 13628 ft 376 kts 65°
2026-05-09 22:22 -40.94607 -71.05020 14114 ft 388 kts 59°
2026-05-09 22:22 -40.93094 -71.02056 14804 ft 391 kts 60°
2026-05-09 22:22 -40.91670 -70.98966 15398 ft 395 kts 63°
2026-05-09 22:23 -40.90298 -70.95798 16023 ft 400 kts 63°
2026-05-09 22:23 -40.88848 -70.92622 16629 ft 406 kts 61°
2026-05-09 22:23 -40.87356 -70.89491 17308 ft 410 kts 61°
2026-05-09 22:23 -40.85850 -70.86261 17978 ft 415 kts 62°
2026-05-09 22:24 -40.84335 -70.82923 18661 ft 420 kts 62°
2026-05-09 22:24 -40.82832 -70.79650 19228 ft 426 kts 62°
2026-05-09 22:24 -40.81248 -70.76260 19852 ft 431 kts 62°
2026-05-09 22:24 -40.79689 -70.72915 20466 ft 436 kts 63°
2026-05-09 22:25 -40.78096 -70.69467 21061 ft 442 kts 64°
2026-05-09 22:25 -40.76483 -70.65981 21665 ft 448 kts 64°
2026-05-09 22:25 -40.74822 -70.62472 22294 ft 455 kts 62°
2026-05-09 22:25 -40.72759 -70.59202 22773 ft 468 kts 52°
2026-05-09 22:26 -40.70502 -70.56076 23447 ft 473 kts 51°
2026-05-09 22:26 -40.68216 -70.52903 23968 ft 480 kts 52°
2026-05-09 22:26 -40.65966 -70.49639 24507 ft 483 kts 54°
2026-05-09 22:26 -40.63701 -70.46341 25034 ft 488 kts 53°
2026-05-09 22:27 -40.61375 -70.43053 25561 ft 492 kts 53°
2026-05-09 22:27 -40.59171 -70.39613 25990 ft 491 kts 60°
2026-05-09 22:27 -40.57144 -70.35995 26559 ft 493 kts 61°
2026-05-09 22:27 -40.55089 -70.32357 27071 ft 498 kts 60°
2026-05-09 22:28 -40.52987 -70.28712 27566 ft 503 kts 60°
2026-05-09 22:28 -40.50869 -70.25038 28063 ft 506 kts 60°
2026-05-09 22:28 -40.48752 -70.21322 28602 ft 510 kts 61°
2026-05-09 22:28 -40.46618 -70.17571 29119 ft 514 kts 61°
2026-05-09 22:29 -40.44451 -70.13800 29610 ft 519 kts 61°
2026-05-09 22:29 -40.42260 -70.10007 30101 ft 523 kts 61°
2026-05-09 22:29 -40.40059 -70.06179 30521 ft 528 kts 62°
2026-05-09 22:29 -40.37870 -70.02362 30940 ft 531 kts 61°
2026-05-09 22:30 -40.35636 -69.98486 31381 ft 534 kts 61°
2026-05-09 22:30 -40.33393 -69.94617 32052 ft 531 kts 61°
2026-05-09 22:30 -40.31156 -69.90754 32655 ft 531 kts 62°
2026-05-09 22:30 -40.28929 -69.86891 33212 ft 531 kts 62°
2026-05-09 22:31 -40.26697 -69.83032 33801 ft 531 kts 61°
2026-05-09 22:31 -40.24459 -69.79181 34386 ft 531 kts 61°
2026-05-09 22:31 -40.22220 -69.75334 34900 ft 531 kts 61°
2026-05-09 22:31 -40.19990 -69.71496 35448 ft 529 kts 61°
2026-05-09 22:32 -40.17766 -69.67670 36029 ft 528 kts 61°
2026-05-09 22:32 -40.15547 -69.63865 36627 ft 526 kts 60°
2026-05-09 22:32 -40.13327 -69.60067 37225 ft 524 kts 60°
2026-05-09 22:32 -40.11114 -69.56279 37839 ft 523 kts 60°
2026-05-09 22:33 -40.08907 -69.52503 38466 ft 521 kts 60°
2026-05-09 22:33 -40.06709 -69.48751 39075 ft 520 kts 60°
2026-05-09 22:33 -40.04515 -69.45011 39578 ft 518 kts 60°
2026-05-09 22:33 -40.02352 -69.41329 40090 ft 517 kts 59°
2026-05-09 22:34 -40.00168 -69.37612 40597 ft 515 kts 59°
2026-05-09 22:34 -39.97985 -69.33901 41126 ft 514 kts 59°
2026-05-09 22:34 -39.95813 -69.30216 41649 ft 512 kts 58°
2026-05-09 22:34 -39.93646 -69.26543 42155 ft 511 kts 58°
2026-05-09 22:35 -39.91483 -69.22882 42660 ft 509 kts 58°
2026-05-09 22:35 -39.89327 -69.19234 43155 ft 508 kts 57°
2026-05-09 22:35 -39.87174 -69.15597 43645 ft 506 kts 57°
2026-05-09 22:35 -39.85025 -69.11972 44134 ft 505 kts 57°
2026-05-09 22:36 -39.82885 -69.08366 44619 ft 503 kts 57°
2026-05-09 22:36 -39.80745 -69.04763 45068 ft 500 kts 57°
2026-05-09 22:36 -39.78626 -69.01201 45299 ft 501 kts 57°
2026-05-09 22:36 -39.76478 -68.97586 45279 ft 509 kts 57°
2026-05-09 22:37 -39.72072 -68.90201 45302 ft 524 kts 56°
2026-05-09 22:37 -39.67540 -68.82620 45292 ft 538 kts 56°
2026-05-09 22:38 -39.62920 -68.74914 45296 ft 542 kts 56°
2026-05-09 22:39 -39.56009 -68.63414 45286 ft 541 kts 56°
2026-05-09 22:39 -39.51363 -68.55712 45278 ft 542 kts 56°
2026-05-09 22:40 -39.44388 -68.44176 45295 ft 543 kts 56°
2026-05-09 22:40 -39.39725 -68.36491 45281 ft 543 kts 56°
2026-05-09 22:41 -39.35053 -68.28807 45291 ft 544 kts 56°
2026-05-09 22:41 -39.30373 -68.21131 45277 ft 544 kts 56°
2026-05-09 22:42 -39.25677 -68.13442 45287 ft 546 kts 56°
2026-05-09 22:42 -39.21001 -68.05811 45270 ft 545 kts 56°
2026-05-09 22:43 -39.16299 -67.98150 45279 ft 545 kts 56°
2026-05-09 22:43 -39.11587 -67.90495 45280 ft 545 kts 56°
2026-05-09 22:44 -39.06877 -67.82859 45285 ft 545 kts 56°
2026-05-09 22:44 -39.02161 -67.75234 45274 ft 544 kts 56°
2026-05-09 22:45 -38.97442 -67.67620 45287 ft 544 kts 55°
2026-05-09 22:45 -38.92726 -67.60031 45285 ft 543 kts 55°
2026-05-09 22:46 -38.88011 -67.52459 45293 ft 542 kts 55°
2026-05-09 22:47 -38.80935 -67.41132 45281 ft 542 kts 55°
2026-05-09 22:47 -38.76244 -67.33643 45290 ft 542 kts 55°
2026-05-09 22:48 -38.71517 -67.26117 45287 ft 542 kts 55°
2026-05-09 22:48 -38.66784 -67.18596 45287 ft 542 kts 55°
2026-05-09 22:49 -38.62051 -67.11094 45295 ft 542 kts 55°
2026-05-09 22:49 -38.57310 -67.03598 45296 ft 541 kts 55°
2026-05-09 22:50 -38.52575 -66.96128 45295 ft 541 kts 54°
2026-05-09 22:50 -38.47830 -66.88658 45286 ft 541 kts 54°
2026-05-09 22:51 -38.43121 -66.81265 45292 ft 540 kts 54°
2026-05-09 22:51 -38.38377 -66.73830 45296 ft 541 kts 54°
2026-05-09 22:52 -38.33706 -66.66345 45253 ft 537 kts 60°
2026-05-09 22:52 -38.30176 -66.58060 45319 ft 533 kts 66°
2026-05-09 22:53 -38.26665 -66.49745 45309 ft 532 kts 66°
2026-05-09 22:53 -38.23158 -66.41448 45303 ft 532 kts 66°
2026-05-09 22:54 -38.19642 -66.33140 45312 ft 533 kts 66°
2026-05-09 22:54 -38.16120 -66.24862 45308 ft 532 kts 66°
2026-05-09 22:55 -38.12604 -66.16594 45305 ft 532 kts 65°
2026-05-09 22:55 -38.09073 -66.08335 45307 ft 532 kts 65°
2026-05-09 22:56 -38.05547 -66.00092 45316 ft 532 kts 65°
2026-05-09 22:56 -38.02010 -65.91859 45311 ft 531 kts 65°
2026-05-09 22:57 -37.98495 -65.83689 45312 ft 531 kts 65°
2026-05-09 22:57 -37.94948 -65.75470 45313 ft 531 kts 65°
2026-05-09 22:58 -37.91400 -65.67267 45315 ft 531 kts 65°
2026-05-09 22:58 -37.87841 -65.59063 45314 ft 531 kts 65°
2026-05-09 22:59 -37.84281 -65.50874 45314 ft 531 kts 64°
2026-05-09 22:59 -37.80713 -65.42689 45315 ft 531 kts 64°
2026-05-09 23:00 -37.77141 -65.34517 45315 ft 531 kts 64°
2026-05-09 23:00 -37.73562 -65.26347 45311 ft 531 kts 64°
2026-05-09 23:01 -37.69975 -65.18183 45320 ft 531 kts 64°
2026-05-09 23:01 -37.66384 -65.10027 45323 ft 531 kts 64°
2026-05-09 23:02 -37.62784 -65.01874 45321 ft 531 kts 64°
2026-05-09 23:02 -37.59205 -64.93787 45321 ft 532 kts 63°
2026-05-09 23:03 -37.55598 -64.85659 45327 ft 531 kts 63°
2026-05-09 23:03 -37.51984 -64.77535 45318 ft 531 kts 63°
2026-05-09 23:04 -37.48368 -64.69428 45323 ft 531 kts 63°
2026-05-09 23:04 -37.44748 -64.61331 45311 ft 531 kts 63°
2026-05-09 23:05 -37.41123 -64.53242 45317 ft 530 kts 63°
2026-05-09 23:05 -37.37496 -64.45169 45312 ft 530 kts 62°
2026-05-09 23:06 -37.33858 -64.37094 45316 ft 531 kts 62°
2026-05-09 23:06 -37.30192 -64.29060 45309 ft 530 kts 62°
2026-05-09 23:07 -37.26512 -64.21030 45312 ft 530 kts 62°
2026-05-09 23:07 -37.22836 -64.13006 45299 ft 531 kts 62°
2026-05-09 23:08 -37.19144 -64.04991 45306 ft 530 kts 62°
2026-05-09 23:08 -37.16079 -63.98331 45303 ft 530 kts 61°
2026-05-09 23:09 -37.11779 -63.89033 45307 ft 530 kts 61°
2026-05-09 23:09 -37.08078 -63.81040 45303 ft 530 kts 61°
2026-05-09 23:10 -37.04971 -63.74351 45304 ft 530 kts 61°
2026-05-09 23:10 -37.01281 -63.66422 45298 ft 530 kts 61°
2026-05-09 23:11 -36.97562 -63.58450 45297 ft 530 kts 61°
2026-05-09 23:11 -36.93840 -63.50490 45293 ft 530 kts 61°
2026-05-09 23:12 -36.90111 -63.42533 45295 ft 530 kts 61°
2026-05-09 23:12 -36.86378 -63.34590 45300 ft 530 kts 61°
2026-05-09 23:13 -36.82641 -63.26653 45298 ft 530 kts 61°
2026-05-09 23:13 -36.78894 -63.18716 45284 ft 531 kts 61°
2026-05-09 23:14 -36.75140 -63.10784 45288 ft 531 kts 61°
2026-05-09 23:14 -36.71373 -63.02843 45289 ft 532 kts 61°
2026-05-09 23:15 -36.67623 -62.94957 45295 ft 532 kts 61°
2026-05-09 23:15 -36.63847 -62.87035 45288 ft 532 kts 60°
2026-05-09 23:16 -36.60067 -62.79123 45289 ft 532 kts 60°
2026-05-09 23:16 -36.56282 -62.71217 45283 ft 532 kts 60°
2026-05-09 23:17 -36.52488 -62.63313 45285 ft 532 kts 60°
2026-05-09 23:17 -36.48690 -62.55420 45283 ft 532 kts 60°
2026-05-09 23:18 -36.44887 -62.47534 45282 ft 531 kts 60°
2026-05-09 23:18 -36.41080 -62.39659 45277 ft 532 kts 60°
2026-05-09 23:19 -36.37296 -62.31848 45277 ft 531 kts 60°
2026-05-09 23:19 -36.33483 -62.23998 45284 ft 531 kts 60°
2026-05-09 23:20 -36.29661 -62.16147 45281 ft 531 kts 60°
2026-05-09 23:21 -36.18193 -61.92695 44949 ft 530 kts 60°
2026-05-09 23:21 -36.16271 -61.88785 45055 ft 534 kts 63°
2026-05-09 23:22 -36.14336 -61.84842 45201 ft 537 kts 63°
2026-05-09 23:22 -36.10437 -61.76926 45277 ft 540 kts 63°
2026-05-09 23:23 -36.06555 -61.69034 45275 ft 536 kts 63°
2026-05-09 23:23 -36.02679 -61.61176 45271 ft 535 kts 62°
2026-05-09 23:24 -35.98828 -61.53390 45264 ft 533 kts 62°
2026-05-09 23:24 -35.94960 -61.45582 45260 ft 533 kts 62°
2026-05-09 23:25 -35.91091 -61.37797 45259 ft 531 kts 62°
2026-05-09 23:25 -35.87760 -61.29757 45205 ft 520 kts 78°
2026-05-09 23:26 -35.85965 -61.21138 45268 ft 520 kts 80°
2026-05-09 23:26 -35.84184 -61.12498 45270 ft 520 kts 79°
2026-05-09 23:27 -35.82372 -61.03878 45263 ft 519 kts 79°
2026-05-09 23:27 -35.80584 -60.95266 45264 ft 519 kts 79°
2026-05-09 23:28 -35.78763 -60.86652 45248 ft 519 kts 79°
2026-05-09 23:28 -35.76956 -60.78041 45251 ft 520 kts 79°
2026-05-09 23:29 -35.75126 -60.69428 45246 ft 520 kts 78°
2026-05-09 23:29 -35.73301 -60.60816 45249 ft 520 kts 78°
2026-05-09 23:30 -35.71474 -60.52265 45234 ft 520 kts 78°
2026-05-09 23:30 -35.69629 -60.43640 45234 ft 520 kts 78°
2026-05-09 23:31 -35.67778 -60.35031 45226 ft 520 kts 78°
2026-05-09 23:31 -35.65920 -60.26419 45223 ft 521 kts 78°
2026-05-09 23:32 -35.64056 -60.17810 45216 ft 521 kts 78°
2026-05-09 23:32 -35.63129 -60.13549 44654 ft 512 kts 78°
2026-05-09 23:32 -35.62217 -60.09367 44052 ft 501 kts 78°
2026-05-09 23:32 -35.61326 -60.05276 43441 ft 491 kts 79°
2026-05-09 23:33 -35.60451 -60.01267 42861 ft 481 kts 79°
2026-05-09 23:33 -35.59591 -59.97334 42271 ft 473 kts 80°
2026-05-09 23:33 -35.58741 -59.93456 41676 ft 468 kts 81°
2026-05-09 23:33 -35.57908 -59.89651 41046 ft 468 kts 81°
2026-05-09 23:34 -35.57049 -59.85732 40359 ft 469 kts 82°
2026-05-09 23:34 -35.56206 -59.81906 39688 ft 471 kts 83°
2026-05-09 23:34 -35.55346 -59.78014 39003 ft 472 kts 83°
2026-05-09 23:34 -35.54487 -59.74127 38263 ft 470 kts 84°
2026-05-09 23:35 -35.53633 -59.70280 37688 ft 466 kts 84°
2026-05-09 23:35 -35.52785 -59.66444 37085 ft 466 kts 84°
2026-05-09 23:35 -35.51934 -59.62584 36432 ft 470 kts 84°
2026-05-09 23:35 -35.51070 -59.58703 35785 ft 471 kts 83°
2026-05-09 23:36 -35.50200 -59.54821 35151 ft 472 kts 83°
2026-05-09 23:36 -35.49333 -59.50938 34519 ft 472 kts 83°
2026-05-09 23:36 -35.48469 -59.47056 33856 ft 471 kts 83°
2026-05-09 23:36 -35.47603 -59.43184 33274 ft 471 kts 83°
2026-05-09 23:37 -35.46722 -59.39286 32660 ft 475 kts 82°
2026-05-09 23:37 -35.45710 -59.35403 32057 ft 479 kts 78°
2026-05-09 23:37 -35.44619 -59.31535 31495 ft 482 kts 76°
2026-05-09 23:37 -35.43344 -59.27712 30940 ft 486 kts 72°
2026-05-09 23:38 -35.41996 -59.23906 30410 ft 485 kts 72°
2026-05-09 23:38 -35.40757 -59.20086 29827 ft 478 kts 75°
2026-05-09 23:38 -35.39599 -59.16293 29223 ft 474 kts 75°
2026-05-09 23:38 -35.38392 -59.12541 28635 ft 472 kts 73°
2026-05-09 23:39 -35.37143 -59.08851 27815 ft 463 kts 72°
2026-05-09 23:39 -35.35934 -59.05185 27010 ft 461 kts 73°
2026-05-09 23:39 -35.34774 -59.01543 26702 ft 463 kts 74°
2026-05-09 23:39 -35.33589 -58.97883 26061 ft 459 kts 73°
2026-05-09 23:40 -35.32389 -58.94283 25511 ft 455 kts 73°
2026-05-09 23:40 -35.31203 -58.90691 24933 ft 452 kts 73°
2026-05-09 23:40 -35.30044 -58.87125 24364 ft 449 kts 73°
2026-05-09 23:40 -35.28889 -58.83585 23797 ft 447 kts 73°
2026-05-09 23:41 -35.27729 -58.80079 23191 ft 442 kts 73°
2026-05-09 23:41 -35.26595 -58.76655 22658 ft 438 kts 73°
2026-05-09 23:41 -35.25463 -58.73209 22100 ft 434 kts 73°
2026-05-09 23:41 -35.24341 -58.69798 21561 ft 430 kts 73°
2026-05-09 23:42 -35.23224 -58.66422 21018 ft 426 kts 73°
2026-05-09 23:42 -35.22116 -58.63079 20483 ft 422 kts 73°
2026-05-09 23:42 -35.21020 -58.59769 19956 ft 419 kts 73°
2026-05-09 23:42 -35.19932 -58.56483 19430 ft 415 kts 73°
2026-05-09 23:43 -35.18851 -58.53224 18908 ft 412 kts 73°
2026-05-09 23:43 -35.17777 -58.49995 18374 ft 409 kts 73°
2026-05-09 23:43 -35.16712 -58.46792 17838 ft 405 kts 73°
2026-05-09 23:43 -35.15655 -58.43615 17333 ft 403 kts 73°
2026-05-09 23:44 -35.14601 -58.40452 16825 ft 401 kts 73°
2026-05-09 23:44 -35.13552 -58.37310 16326 ft 398 kts 73°
2026-05-09 23:44 -35.12510 -58.34190 15814 ft 395 kts 72°
2026-05-09 23:45 -35.10444 -58.28013 14828 ft 387 kts 72°
2026-05-09 23:45 -35.09451 -58.25067 14427 ft 364 kts 72°
2026-05-09 23:45 -35.08517 -58.22290 14094 ft 343 kts 72°
2026-05-09 23:45 -35.07638 -58.19658 13741 ft 327 kts 73°
2026-05-09 23:46 -35.06797 -58.17146 13395 ft 312 kts 73°
2026-05-09 23:46 -35.06000 -58.14777 13069 ft 301 kts 73°
2026-05-09 23:46 -35.05215 -58.12440 12739 ft 295 kts 72°
2026-05-09 23:46 -35.04439 -58.10127 12383 ft 294 kts 72°
2026-05-09 23:47 -35.03664 -58.07824 12008 ft 293 kts 72°
2026-05-09 23:47 -35.02892 -58.05536 11637 ft 291 kts 72°
2026-05-09 23:47 -35.02123 -58.03260 11275 ft 289 kts 71°
2026-05-09 23:47 -35.01361 -58.01002 10912 ft 286 kts 71°
2026-05-09 23:48 -35.00602 -57.98756 10418 ft 287 kts 71°
2026-05-09 23:48 -34.99846 -57.96524 10006 ft 281 kts 70°
2026-05-09 23:48 -34.98826 -57.94514 9543 ft 282 kts 47°
2026-05-09 23:49 -34.95267 -57.92996 8842 ft 277 kts 351°
2026-05-09 23:49 -34.93488 -57.93743 8497 ft 268 kts 324°
2026-05-09 23:49 -34.92001 -57.95095 8212 ft 275 kts 316°
2026-05-09 23:49 -34.90483 -57.96558 7845 ft 275 kts 316°
2026-05-09 23:50 -34.89017 -57.97931 7473 ft 254 kts 317°
2026-05-09 23:50 -34.87631 -57.99231 7112 ft 249 kts 316°
2026-05-09 23:50 -34.86308 -58.00481 6785 ft 231 kts 315°
2026-05-09 23:50 -34.85081 -58.01641 6476 ft 224 kts 315°
2026-05-09 23:51 -34.83858 -58.02801 6170 ft 222 kts 315°
2026-05-09 23:51 -34.82649 -58.03940 5889 ft 218 kts 315°
2026-05-09 23:51 -34.81452 -58.05066 5595 ft 216 kts 315°
2026-05-09 23:51 -34.80271 -58.06179 5325 ft 213 kts 314°
2026-05-09 23:52 -34.79103 -58.07279 5045 ft 212 kts 314°
2026-05-09 23:52 -34.77939 -58.08376 4759 ft 211 kts 314°
2026-05-09 23:52 -34.76782 -58.09464 4478 ft 209 kts 314°
2026-05-09 23:52 -34.75634 -58.10543 4207 ft 208 kts 314°
2026-05-09 23:53 -34.74495 -58.11615 3930 ft 207 kts 314°
2026-05-09 23:53 -34.73363 -58.12679 3669 ft 205 kts 314°
2026-05-09 23:53 -34.72235 -58.13739 3397 ft 204 kts 313°
2026-05-09 23:53 -34.71112 -58.14793 3132 ft 203 kts 313°
2026-05-09 23:54 -34.70147 -58.15955 2949 ft 184 kts 294°
2026-05-09 23:54 -34.69468 -58.17228 2991 ft 180 kts 292°
2026-05-09 23:54 -34.68756 -58.18516 3008 ft 186 kts 294°
2026-05-09 23:54 -34.68020 -58.19837 3013 ft 191 kts 294°
2026-05-09 23:55 -34.67274 -58.21174 3010 ft 191 kts 294°
2026-05-09 23:55 -34.66528 -58.22520 2909 ft 193 kts 294°
2026-05-09 23:55 -34.65773 -58.23880 2738 ft 196 kts 294°
2026-05-09 23:55 -34.65017 -58.25238 2568 ft 193 kts 294°
2026-05-09 23:56 -34.64272 -58.26577 2399 ft 190 kts 294°
2026-05-09 23:56 -34.63538 -58.27894 2228 ft 186 kts 294°
2026-05-09 23:56 -34.63064 -58.28746 2114 ft 179 kts 294°
2026-05-09 23:56 -34.62404 -58.29915 1944 ft 157 kts 292°
2026-05-09 23:57 -34.61816 -58.30978 1805 ft 150 kts 291°
2026-05-09 23:57 -34.61227 -58.32056 1708 ft 153 kts 292°
2026-05-09 23:57 -34.60634 -58.33117 1562 ft 149 kts 293°
2026-05-09 23:57 -34.60066 -58.34132 1356 ft 142 kts 293°
2026-05-09 23:58 -34.59528 -58.35096 1173 ft 134 kts 294°
2026-05-09 23:58 -34.59015 -58.36019 981 ft 129 kts 295°
2026-05-09 23:58 -34.58515 -58.36922 802 ft 129 kts 297°
2026-05-09 23:58 -34.58022 -58.37805 630 ft 125 kts 297°
2026-05-09 23:59 -34.57536 -58.38677 441 ft 125 kts 300°
2026-05-09 23:59 -34.57054 -58.39550 251 ft 126 kts 301°
2026-05-09 23:59 -34.56569 -58.40415 99 ft 123 kts 301°
2026-05-09 23:59 -34.56098 -58.41262 25 ft 117 kts 301°
2026-05-10 00:00 -34.55741 -58.41907 23 ft 61 kts 305°
2026-05-10 00:00 -34.55541 -58.42263 27 ft 36 kts 304°
2026-05-10 00:00 -34.55426 -58.42470 25 ft 18 kts 307°
2026-05-10 00:00 -34.55355 -58.42459 25 ft 9 kts 78°
2026-05-10 00:01 -34.55365 -58.42391 23 ft 8 kts 105°
2026-05-10 00:01 -34.55389 -58.42337 23 ft 7 kts 126°
2026-05-10 00:01 -34.55416 -58.42294 23 ft 6 kts 128°
2026-05-10 00:01 -34.55440 -58.42257 25 ft 5 kts 127°
2026-05-10 00:02 -34.55462 -58.42221 26 ft 5 kts 127°
2026-05-10 00:02 -34.55487 -58.42181 24 ft 7 kts 126°
2026-05-10 00:02 -34.55515 -58.42135 23 ft 7 kts 126°
2026-05-10 00:02 -34.55545 -58.42087 23 ft 7 kts 126°
2026-05-10 00:03 -34.55573 -58.42039 23 ft 7 kts 126°
2026-05-10 00:03 -34.55602 -58.41992 24 ft 8 kts 125°
2026-05-10 00:03 -34.55652 -58.41901 25 ft 18 kts 124°
2026-05-10 00:03 -34.55734 -58.41748 25 ft 22 kts 120°
2026-05-10 00:04 -34.55802 -58.41586 23 ft 22 kts 117°
2026-05-10 00:04 -34.55869 -58.41428 24 ft 20 kts 117°
2026-05-10 00:04 -34.55927 -58.41311 26 ft 14 kts 149°
2026-05-10 00:04 -34.56028 -58.41364 23 ft 23 kts 215°
2026-05-10 00:05 -34.56151 -58.41467 24 ft 18 kts 213°
2026-05-10 00:05 -34.56227 -58.41421 24 ft 14 kts 124°
2026-05-10 00:05 -34.56218 -58.41363 25 ft 7 kts 33°